DW9433 Weather Reports


Display with metric or nautical units.
time (UTC)temp
F
wind
direction
speed
MPH
gust
MPH
rain 1hr
in
rain 24hr
in
rain mn
in
humidity
%
barometer
mb
20260508220049 76 171 0.0 8.0 0.00 0.00 0.00 43 1010.2
20260508214541 76 210 0.0 6.0 0.00 0.00 0.00 45 1010.4
20260508213042 77 221 0.0 1.0 0.00 0.00 0.00 44 1010.3
20260508211537 77 183 1.0 6.0 0.00 0.00 0.00 43 1010.5
20260508210042 77 159 0.0 3.0 0.00 0.00 0.00 42 1010.7
20260508204536 77 188 0.0 5.0 0.00 0.00 0.00 42 1010.7
20260508203041 77 175 0.0 4.0 0.00 0.00 0.00 43 1010.9
20260508201532 77 221 0.0 8.0 0.00 0.00 0.00 41 1011.1
20260508200029 77 199 0.0 4.0 0.00 0.00 0.00 42 1011.3
20260508194535 77 360 1.0 5.0 0.00 0.00 0.00 41 1011.5
20260508193025 76 186 0.0 4.0 0.00 0.00 0.00 44 1011.5
20260508191529 76 291 0.0 4.0 0.00 0.00 0.00 44 1011.8
20260508190023 76 165 0.0 3.0 0.00 0.00 0.00 44 1011.9
20260508184522 76 126 0.0 4.0 0.00 0.00 0.00 42 1012.3
20260508183025 75 208 0.0 3.0 0.00 0.00 0.00 46 1012.8
20260508181515 74 36 0.0 2.0 0.00 0.00 0.00 48 1013.3
20260508180016 74 29 0.0 4.0 0.00 0.00 0.00 45 1013.3
20260508174510 74 178 0.0 6.0 0.00 0.00 0.00 42 1013.7
20260508173006 74 178 0.0 0.0 0.00 0.00 0.00 42 1013.9
20260508171503 73 166 0.0 4.0 0.00 0.00 0.00 45 1014.3
20260508170059 73 355 0.0 4.0 0.00 0.00 0.00 48 1014.6
20260508164557 73 229 0.0 6.0 0.00 0.00 0.00 46 1014.9
20260508163054 72 12 0.0 4.0 0.00 0.00 0.00 44 1015.2
20260508161557 72 44 0.0 7.0 0.00 0.00 0.00 49 1015.4
20260508160048 71 310 0.0 3.0 0.00 0.00 0.00 51 1015.5
20260508154605 71 28 0.0 5.0 0.00 0.00 0.00 50 1015.5
20260508153045 70 159 0.0 1.0 0.00 0.00 0.00 53 1015.7
20260508151540 69 140 1.0 5.0 0.00 0.00 0.00 54 1016.0
20260508150053 68 212 0.0 4.0 0.00 0.00 0.00 54 1016.2
20260508144535 67 159 0.0 6.0 0.00 0.00 0.00 59 1016.2
20260508143046 66 170 0.0 6.0 0.00 0.00 0.00 59 1016.4
20260508141530 65 142 0.0 1.0 0.00 0.00 0.00 61 1016.5
20260508140028 64 180 0.0 1.0 0.00 0.00 0.00 64 1016.4
20260508134521 62 169 0.0 1.0 0.00 0.00 0.00 67 1016.3
20260508133018 60 164 0.0 1.0 0.00 0.00 0.00 71 1016.6
20260508131513 58 160 0.0 1.0 0.00 0.00 0.00 73 1016.9
20260508130009 56 140 0.0 0.0 0.00 0.00 0.00 82 1016.6
20260508124505 54 144 0.0 0.0 0.00 0.00 0.00 87 1016.7
20260508123101 52 144 0.0 0.0 0.00 0.00 0.00 92 1016.7
20260508121558 49 144 0.0 0.0 0.00 0.00 0.00 95 1016.8
20260508120101 48 144 0.0 0.0 0.00 0.00 0.00 95 1016.7
20260508114555 47 144 0.0 0.0 0.00 0.00 0.00 96 1016.5
20260508113057 46 144 0.0 0.0 0.00 0.00 0.00 94 1016.3
20260508111601 45 144 0.0 0.0 0.00 0.00 0.00 94 1016.0
20260508110051 45 144 0.0 0.0 0.00 0.00 0.00 93 1016.0
20260508104550 45 144 0.0 0.0 0.00 0.00 0.00 93 1015.8
20260508103053 46 144 0.0 0.0 0.00 0.00 0.00 93 1016.0
20260508101550 46 144 0.0 0.0 0.00 0.00 0.00 93 1016.0
20260508100046 46 144 0.0 0.0 0.00 0.00 0.00 93 1016.0
20260508094548 46 144 0.0 0.0 0.00 0.00 0.00 93 1015.8
20260508093048 47 144 0.0 0.0 0.00 0.00 0.00 93 1015.8
20260508091556 47 144 0.0 0.0 0.00 0.00 0.00 93 1015.8
20260508090042 47 144 0.0 0.0 0.00 0.00 0.00 93 1015.6
20260508084541 48 144 0.0 0.0 0.00 0.00 0.00 93 1015.5
20260508083050 48 144 0.0 0.0 0.00 0.00 0.00 93 1015.4
20260508081538 48 144 0.0 0.0 0.00 0.00 0.00 93 1015.5
20260508080059 48 144 0.0 0.0 0.00 0.00 0.00 93 1015.5
20260508074536 49 144 0.0 0.0 0.00 0.00 0.00 92 1015.6
20260508073032 49 144 0.0 0.0 0.00 0.00 0.00 92 1015.7
20260508071531 50 144 0.0 0.0 0.00 0.00 0.00 92 1015.7
20260508070028 50 144 0.0 0.0 0.00 0.00 0.00 93 1015.8
20260508064539 50 144 0.0 0.0 0.00 0.00 0.00 92 1016.0
20260508063028 50 144 0.0 0.0 0.00 0.00 0.00 92 1016.2
20260508061526 50 144 0.0 0.0 0.00 0.00 0.00 92 1016.2
20260508060022 50 144 0.0 0.0 0.00 0.00 0.00 91 1016.1
20260508054536 51 144 0.0 0.0 0.00 0.00 0.00 92 1016.2
20260508053020 51 144 0.0 0.0 0.00 0.00 0.00 91 1016.1
20260508051518 51 144 0.0 0.0 0.00 0.00 0.00 91 1016.2
20260508050016 51 144 0.0 0.0 0.00 0.00 0.00 91 1016.2
20260508044516 52 144 0.0 0.0 0.00 0.00 0.00 91 1016.2
20260508043016 52 144 0.0 0.0 0.00 0.00 0.00 90 1016.3
20260508041515 52 144 0.0 0.0 0.00 0.00 0.00 90 1016.3
20260508040034 53 144 0.0 0.0 0.00 0.00 0.00 89 1016.3
20260508034514 53 144 0.0 0.0 0.00 0.00 0.00 89 1016.2
20260508033017 53 144 0.0 0.0 0.00 0.00 0.00 89 1016.1
20260508031516 54 144 0.0 0.0 0.00 0.00 0.00 88 1016.4
20260508030013 54 144 0.0 0.0 0.00 0.00 0.00 86 1016.3
20260508024522 55 144 0.0 0.0 0.00 0.00 0.00 85 1016.3
20260508023013 56 144 0.0 0.0 0.00 0.00 0.00 84 1016.1
20260508021512 57 144 0.0 0.0 0.00 0.00 0.00 82 1015.8
20260508020011 57 144 0.0 0.0 0.00 0.00 0.00 80 1015.7
20260508014513 58 144 0.0 0.0 0.00 0.00 0.00 78 1015.6
20260508013013 60 144 0.0 0.0 0.00 0.00 0.00 75 1015.4
20260508011510 61 144 0.0 0.0 0.00 0.00 0.00 71 1015.4
20260508010014 62 144 0.0 0.0 0.00 0.00 0.00 69 1015.3
20260508004509 63 144 0.0 0.0 0.00 0.00 0.00 64 1015.2
20260508003009 64 144 0.0 0.0 0.00 0.00 0.00 62 1015.3
20260508001508 65 144 0.0 0.0 0.00 0.00 0.00 56 1015.1
20260508000007 66 144 0.0 0.0 0.00 0.00 0.00 57 1015.1
20260507234511 66 144 0.0 0.0 0.00 0.00 0.00 55 1014.8
20260507233013 66 17 0.0 0.0 0.00 0.00 0.00 53 1015.1
20260507231506 67 17 0.0 0.0 0.00 0.00 0.00 51 1014.9
20260507230013 67 15 0.0 0.0 0.00 0.00 0.00 53 1015.0
20260507224508 67 343 0.0 0.0 0.00 0.00 0.00 50 1015.1
20260507223008 68 42 0.0 0.0 0.00 0.00 0.00 51 1015.0
20260507221504 68 42 0.0 0.0 0.00 0.00 0.00 51 1015.2